Theta_e
349 350 350 350 350 351 351 352 351 351 351 351 351 351 351 351 351 352 351 350 351 351 351 351 351 351 347 344 347 349 350 350 350 351 352 352 352 352 352 353 354 354 354 353 353 353 353 354 353 354 354 353 353 353 353 353 352 351 352 351 351 349 346 342 343 342 340 340 342 343 343 343 343 342 342 342 343 343 343 343 344 345 346 346 344
350 349 349 350 350 350 351 351 352 351 351 351 351 351 351 351 351 351 351 350 350 350 351 351 351 351 349 346 347 349 351 351 351 352 352 353 353 353 352 353 353 354 354 353 354 354 353 354 354 354 354 353 353 353 353 353 352 352 352 351 351 350 344 339 341 340 338 340 342 342 342 344 343 343 344 343 343 343 343 343 344 344 345 345 345
351 350 349 349 349 351 351 351 352 352 352 352 352 352 351 351 351 351 351 351 351 351 351 351 351 351 350 348 348 351 352 351 351 352 352 352 353 353 352 353 353 354 354 354 354 354 353 354 354 354 353 352 353 353 353 354 353 352 353 351 351 350 343 339 340 339 337 338 340 343 343 344 344 342 344 344 343 344 343 343 343 343 344 345 345
352 351 350 349 349 351 351 352 352 352 353 353 352 352 351 352 351 352 351 351 351 350 351 351 351 351 351 350 350 351 352 352 352 352 352 352 352 354 353 353 353 354 354 353 353 353 351 351 353 354 353 353 353 353 354 355 353 353 352 351 351 348 344 340 338 339 338 337 339 342 339 340 345 343 340 343 344 344 344 343 343 343 343 343 344
352 351 350 349 349 350 351 351 352 353 352 353 352 352 353 352 352 352 352 351 351 351 351 351 352 353 352 352 352 352 353 353 353 353 352 352 352 353 354 353 353 353 353 352 351 351 349 348 351 353 353 353 354 354 354 354 353 353 352 352 350 348 346 342 338 338 339 337 337 341 337 339 349 345 337 340 342 343 344 342 343 344 343 341 340
350 352 350 349 349 350 351 351 352 352 353 353 353 353 353 353 353 353 353 352 352 351 351 352 352 353 353 353 353 353 353 353 354 354 353 352 353 353 353 354 353 353 352 351 350 349 347 346 348 352 352 353 354 354 355 355 353 353 352 352 350 349 348 343 339 338 339 337 336 340 340 341 345 342 340 343 340 340 343 343 342 343 343 341 339
351 351 351 350 349 349 350 350 352 352 353 353 354 354 353 353 354 354 354 353 352 352 352 352 353 353 353 353 353 353 353 353 353 353 354 353 353 353 353 353 353 353 353 352 350 349 348 345 346 350 352 353 354 354 355 355 354 353 353 352 350 351 350 346 341 339 339 339 337 338 341 340 337 337 341 344 342 340 340 341 344 343 343 340 339
351 351 351 350 349 349 350 351 351 352 352 353 353 354 354 353 354 354 354 354 353 353 353 352 352 353 353 353 353 353 353 352 353 353 354 353 353 353 353 353 353 353 353 352 351 350 349 346 345 347 351 353 354 354 355 355 354 354 353 352 352 351 351 348 343 340 340 340 339 339 342 341 339 336 338 341 344 345 342 340 343 344 343 341 339
351 351 351 350 349 349 349 350 351 352 352 352 354 354 354 353 353 354 354 355 354 354 353 353 352 353 353 353 353 353 353 353 353 353 353 354 353 354 353 352 353 353 353 353 351 350 350 349 345 345 349 353 354 355 354 355 354 354 354 352 352 352 351 350 347 342 340 341 339 340 342 341 340 338 336 336 340 346 345 340 340 342 343 341 340
351 351 350 350 349 349 349 350 350 351 352 352 353 353 353 354 354 354 354 354 355 354 354 354 353 354 353 353 353 353 353 353 353 353 353 353 353 354 353 352 352 353 353 353 352 351 351 350 347 344 346 351 353 354 354 354 353 353 354 352 351 352 352 351 350 345 342 340 339 340 341 340 341 339 338 337 336 338 342 339 336 339 341 340 339
352 351 350 350 349 349 349 350 350 351 352 352 353 354 354 354 354 354 354 354 355 354 354 353 353 353 353 353 353 353 353 353 353 353 353 352 353 353 353 352 352 352 352 352 352 352 351 351 350 346 345 349 351 351 352 353 353 353 354 353 352 352 352 352 351 350 346 342 339 339 340 340 341 340 338 338 336 335 339 338 335 336 340 339 339
351 351 351 350 350 350 349 349 350 351 352 352 353 353 353 354 354 354 354 354 355 355 354 354 354 354 354 353 353 353 353 353 353 353 353 352 352 353 353 353 353 353 352 352 351 351 352 352 351 350 347 349 350 351 351 352 353 354 355 354 353 353 353 353 353 352 350 346 340 339 340 339 340 340 339 337 336 336 337 337 334 335 338 338 338
352 351 352 351 351 351 349 349 349 351 352 353 353 354 354 354 354 354 354 354 355 355 355 354 354 354 354 354 353 353 352 353 353 353 353 353 352 352 353 353 353 353 353 352 351 351 352 352 352 352 350 349 351 352 352 353 354 356 356 354 353 353 354 353 352 353 351 348 342 338 339 338 338 341 339 338 337 336 336 335 334 335 336 336 337
352 352 351 351 351 350 349 349 350 350 352 353 353 353 353 354 354 354 354 355 355 355 355 355 354 354 354 354 353 353 353 353 353 353 353 353 352 352 352 353 353 353 353 352 352 351 351 352 353 352 351 349 350 352 353 354 355 357 357 356 354 353 353 353 352 352 352 350 344 341 340 338 338 340 339 338 337 336 336 335 336 338 337 334 336
352 352 352 351 351 349 349 349 349 350 351 352 353 354 354 353 354 354 354 354 354 355 355 355 355 354 354 354 354 353 353 353 353 353 352 352 352 351 351 352 352 352 353 352 351 352 351 352 352 352 352 349 349 351 353 355 357 357 358 357 355 354 354 354 353 353 353 351 347 345 344 339 338 339 339 338 338 338 338 336 338 342 342 338 336
351 352 352 352 351 349 349 349 349 350 351 352 352 353 354 353 353 354 354 354 354 355 355 355 355 355 354 354 353 353 353 352 353 353 352 352 351 351 351 350 351 352 352 353 352 352 351 352 352 352 353 351 349 350 352 354 356 357 357 357 357 356 355 355 354 354 353 352 349 347 345 342 340 340 340 339 338 338 339 339 338 340 345 346 344
351 352 353 353 352 349 348 349 350 350 350 352 352 353 354 353 354 353 353 354 354 354 355 355 355 354 354 354 353 353 353 353 353 353 352 352 352 351 351 350 351 351 352 353 352 352 352 352 352 352 353 352 351 351 352 353 354 356 357 357 357 358 357 356 355 354 353 353 352 349 346 344 343 344 343 342 339 338 339 340 340 338 340 347 350
351 352 351 352 351 350 349 349 349 350 350 351 352 352 354 354 353 354 354 354 354 354 354 354 355 354 354 354 353 353 353 353 353 352 352 352 352 352 352 350 350 350 351 352 353 352 352 352 352 352 352 353 353 352 352 353 354 355 356 356 357 358 358 358 357 356 354 353 353 352 348 345 344 344 344 343 341 340 339 339 341 340 339 341 343
351 352 352 352 351 350 348 348 349 350 350 351 352 352 353 353 354 354 354 354 354 354 354 354 354 354 354 354 353 354 353 353 352 352 352 352 352 352 352 352 350 350 349 351 352 352 352 352 352 352 353 353 353 353 354 354 354 354 354 356 357 358 359 358 358 358 357 355 354 353 351 346 344 344 344 344 342 342 340 340 341 340 340 339 338
351 351 351 352 351 350 348 349 349 350 350 350 351 352 353 353 353 354 354 354 354 354 354 354 354 354 354 354 353 353 353 353 353 353 352 352 352 352 352 352 352 351 350 350 351 351 351 351 351 352 353 353 353 353 354 354 355 354 354 354 356 358 360 359 359 358 358 357 356 355 354 349 346 345 344 344 343 341 341 341 341 341 340 340 338
351 351 352 351 351 350 348 349 349 349 350 350 351 352 352 352 353 353 354 353 354 354 354 354 354 354 354 353 353 353 353 353 352 352 352 351 352 352 352 352 352 352 351 351 350 351 351 350 351 352 352 353 353 353 353 354 356 355 355 355 356 358 359 360 360 359 359 358 358 357 356 354 350 347 345 344 342 341 340 340 340 342 342 341 340
350 351 351 351 351 350 349 349 349 349 351 350 351 351 352 352 352 353 354 353 353 354 354 354 354 353 354 353 353 353 353 353 353 352 352 352 352 352 352 352 352 352 352 352 351 351 351 352 351 352 352 353 353 352 353 354 356 357 356 356 356 357 359 360 360 360 359 359 358 357 356 356 355 352 348 345 344 341 341 341 340 342 344 344 342
350 350 350 351 351 350 349 349 350 350 350 351 351 351 351 352 352 352 353 353 353 353 353 354 354 354 353 353 353 353 353 353 352 352 352 352 352 352 352 353 353 353 352 352 351 351 351 353 353 353 353 352 353 353 353 354 356 356 357 356 357 357 358 360 360 359 359 359 359 358 357 356 356 355 353 349 347 344 343 343 343 343 344 345 345
350 350 351 353 351 351 350 350 350 350 350 351 351 351 352 352 352 352 353 353 353 353 353 354 354 354 353 353 352 353 353 352 352 352 352 352 352 352 352 353 353 353 353 352 352 352 352 353 353 353 353 353 353 353 353 354 355 355 356 356 357 358 358 359 359 359 359 359 358 358 357 357 356 357 356 354 350 348 346 344 344 344 344 344 345
350 351 352 353 352 354 353 351 350 350 351 351 351 352 353 352 353 353 353 353 353 353 353 353 354 353 353 353 352 353 353 352 353 352 353 352 353 353 352 352 353 353 353 353 353 353 353 354 354 354 354 354 353 354 354 355 355 355 356 356 357 357 358 358 358 358 359 359 358 358 357 357 357 356 356 356 353 350 348 346 345 343 343 343 344
352 351 353 354 353 354 354 352 350 350 351 351 352 353 353 353 354 353 353 354 353 353 353 354 354 354 354 354 353 353 353 353 353 353 353 353 353 353 353 353 353 353 353 354 354 354 354 354 354 354 354 354 354 355 354 354 355 356 356 356 356 357 358 357 358 358 358 358 358 358 357 356 356 356 355 356 355 352 350 348 347 344 343 342 342
352 351 352 355 354 355 355 353 350 350 351 351 351 353 353 354 355 354 354 354 354 354 353 354 354 354 354 354 354 354 353 354 353 353 353 353 353 353 353 353 353 353 354 354 354 355 355 354 355 354 355 354 354 355 355 355 356 356 356 356 357 357 357 357 357 357 357 358 358 358 357 357 356 356 355 355 355 354 352 350 349 348 345 344 343
352 352 354 355 355 355 354 352 351 350 351 352 352 352 353 355 355 355 356 356 355 355 355 354 355 354 354 355 354 354 354 354 354 353 354 353 353 354 353 353 353 352 353 354 354 354 355 355 355 355 355 355 355 355 355 355 356 356 357 356 356 357 357 358 357 358 357 358 358 358 357 356 356 355 354 354 354 353 352 351 351 349 348 346 344
351 352 354 354 355 355 355 353 352 350 351 352 352 352 353 354 356 356 357 356 356 356 355 356 355 355 355 355 355 355 355 354 354 354 354 354 354 354 354 354 353 353 352 352 353 354 355 356 356 356 355 355 355 355 354 355 355 356 356 356 356 357 357 357 357 358 358 358 357 357 357 357 356 355 355 354 353 353 352 352 351 350 349 348 346
351 352 353 353 353 355 354 355 353 350 351 352 352 352 353 354 355 356 357 357 357 357 356 356 356 356 355 356 355 355 355 355 355 354 355 354 354 354 354 354 354 353 353 352 352 353 353 355 356 356 356 356 356 355 354 354 355 355 355 356 357 356 356 357 357 357 357 358 357 357 357 356 356 356 355 355 354 353 353 352 352 350 350 349 347
350 351 352 352 353 354 354 355 354 351 350 352 352 353 353 353 354 356 357 358 358 358 358 357 357 357 356 356 356 356 356 356 355 355 355 354 355 354 354 354 354 354 354 353 352 352 352 352 354 355 355 356 356 355 355 355 355 355 356 356 357 357 357 357 357 357 357 357 357 357 357 356 357 356 356 356 355 355 354 354 353 352 351 350 348
349 351 351 352 353 353 354 354 352 351 351 352 353 353 353 353 354 354 357 358 359 359 359 358 358 357 358 357 357 356 356 356 355 356 355 355 355 354 354 355 355 354 354 354 353 352 352 351 352 352 353 355 355 355 355 355 356 356 356 357 357 357 357 357 357 358 358 357 357 357 357 357 357 357 357 356 356 356 355 355 354 354 352 352 350
350 351 352 352 351 352 353 353 350 350 351 352 353 352 353 354 353 354 356 358 359 360 359 359 359 359 358 358 358 358 357 357 356 356 356 355 355 355 355 354 354 355 354 354 353 353 352 351 351 351 352 353 353 354 354 355 356 356 357 357 357 357 357 357 357 357 358 358 357 357 358 357 357 357 357 356 356 356 356 355 355 355 354 354 353
350 351 351 351 350 351 351 350 350 350 351 351 353 353 353 354 354 355 356 357 359 360 360 360 360 360 359 359 359 359 358 358 358 357 357 356 356 356 355 355 355 354 354 354 353 353 353 353 352 351 351 352 352 353 354 354 355 355 355 357 357 357 356 357 357 357 357 357 357 357 358 357 358 357 357 357 356 356 356 356 355 356 355 355 354
357 356 355 354 356 354 350 348 349 350 351 352 353 353 354 354 354 355 356 357 359 360 360 361 360 361 360 360 360 359 359 359 359 358 358 357 357 357 356 356 355 355 354 354 354 353 353 353 352 352 352 352 351 352 352 353 354 354 355 356 357 357 357 356 357 357 358 358 358 357 358 357 358 358 357 357 356 356 356 356 355 355 355 355 355
363 362 363 360 356 353 351 349 349 351 351 351 353 355 355 355 356 355 357 358 360 360 361 362 361 362 362 361 361 361 360 360 359 359 359 358 357 357 357 356 356 355 355 354 353 354 353 352 353 352 352 352 352 351 352 352 353 353 354 355 356 356 357 357 356 357 357 357 358 358 358 358 358 358 357 358 357 357 356 356 356 355 354 354 354
364 363 362 359 355 353 353 352 352 353 352 351 353 354 355 356 357 356 357 358 359 361 362 362 362 363 362 362 362 362 361 361 360 359 359 359 358 358 358 357 357 356 355 355 354 354 353 353 352 352 352 353 352 352 352 352 353 353 354 355 355 356 356 356 356 357 357 357 357 358 358 358 358 358 358 358 358 357 357 356 356 355 355 354 354
362 362 360 358 359 360 360 360 360 360 358 353 353 354 355 356 357 357 358 358 358 360 362 362 363 363 363 363 363 362 362 361 361 360 360 359 359 359 358 358 357 356 356 355 354 354 354 353 353 352 352 353 352 352 352 352 352 353 354 355 356 355 356 356 356 356 357 357 357 358 357 358 358 358 358 358 358 358 357 357 356 355 356 355 355
359 361 360 359 361 361 361 362 363 363 364 360 356 355 356 357 357 357 358 358 359 359 360 362 363 364 365 364 364 363 363 362 362 361 361 360 359 359 359 358 357 356 356 355 355 354 354 353 352 353 352 352 353 352 352 352 353 353 353 354 355 355 356 355 356 356 356 357 357 358 358 359 359 358 358 358 359 359 358 357 356 355 355 356 355
355 357 359 359 359 359 360 360 360 363 367 365 362 361 362 362 360 359 359 359 359 359 359 360 361 362 365 365 364 364 364 363 363 362 362 361 360 359 359 358 358 357 356 356 355 354 354 353 353 353 352 352 353 353 353 353 353 353 353 353 355 355 355 355 356 356 356 357 357 358 358 359 358 359 359 359 359 359 358 358 357 356 355 356 356
352 355 357 357 357 357 357 357 359 363 366 366 365 364 364 364 364 362 363 364 363 362 361 360 359 360 362 363 364 365 364 364 364 362 362 362 361 360 359 358 358 357 357 356 356 354 354 354 353 353 353 352 353 354 354 354 354 354 355 354 355 356 356 356 356 356 357 357 357 358 358 358 359 359 359 359 359 359 359 358 358 357 357 357 357
351 354 355 355 355 355 356 355 357 361 362 364 364 362 360 362 362 361 363 364 365 366 366 363 361 360 361 362 363 363 364 364 364 363 363 362 361 361 360 358 358 358 356 357 356 355 355 354 354 354 353 353 354 354 355 355 355 356 357 356 356 357 357 357 357 357 357 357 358 359 359 359 359 360 360 360 360 359 360 359 358 358 358 358 356
351 352 353 353 352 352 352 353 354 357 359 360 360 358 357 358 357 358 361 363 364 366 368 368 366 360 360 361 361 362 363 363 364 364 363 362 361 361 360 359 357 357 357 357 356 355 355 354 354 354 354 354 354 354 355 355 356 356 357 358 358 358 358 359 358 358 358 358 359 359 359 359 360 359 360 360 360 361 360 359 360 360 359 358 354
350 351 351 350 350 350 351 351 352 353 355 355 357 355 354 354 354 357 360 363 364 365 366 369 368 363 360 360 361 361 362 363 363 364 363 362 362 361 360 360 358 357 357 357 356 356 356 355 355 354 355 355 354 354 355 355 355 356 357 357 358 359 359 359 359 358 359 359 360 359 360 361 361 360 361 361 361 362 361 361 362 360 359 359 353
350 350 350 349 349 349 349 349 350 351 351 352 353 353 352 352 353 355 358 361 362 365 366 368 368 366 360 359 360 361 362 363 363 363 363 363 362 361 360 360 359 358 358 357 357 357 356 356 356 356 355 356 356 355 356 356 356 357 357 358 358 358 359 359 359 359 359 359 360 360 360 361 361 361 362 361 360 360 360 360 360 358 356 357 353
349 350 349 349 349 348 348 348 348 349 350 351 351 352 352 352 353 355 358 359 361 363 365 366 369 367 362 359 361 361 362 362 362 363 364 363 362 362 362 361 360 360 359 358 358 358 357 357 357 357 357 357 357 357 358 358 358 359 359 359 359 359 360 360 359 359 360 359 359 360 360 360 360 360 359 359 358 358 358 357 356 355 354 353 351
347 349 349 348 348 347 348 347 347 348 349 350 350 351 352 353 353 355 357 358 360 363 364 366 369 368 363 360 361 361 362 363 363 364 363 363 363 363 362 362 362 361 360 360 359 359 360 359 359 359 359 359 359 360 360 360 361 362 362 362 361 361 361 361 360 360 360 359 359 358 357 357 357 357 356 355 355 354 354 352 350 348 347 344 342
347 349 350 348 347 347 347 346 346 347 348 349 350 351 352 354 355 356 357 358 360 362 363 366 369 368 364 361 362 364 364 365 364 364 364 364 364 364 363 363 363 363 363 363 362 361 361 361 361 361 361 362 362 361 362 362 362 363 363 363 362 363 362 361 362 360 359 357 355 354 353 352 352 351 350 350 348 346 345 342 340 337 335 333 332
346 348 349 349 347 347 346 346 346 346 347 348 349 350 352 354 355 358 359 359 361 363 363 364 367 368 365 362 364 367 366 366 365 364 362 362 363 364 365 364 365 365 364 364 364 364 363 363 363 363 363 363 363 363 364 364 363 363 363 363 364 365 365 364 362 359 356 352 351 350 349 348 347 346 344 341 339 337 334 332 330 329 329 330 331
346 347 348 348 347 346 345 345 345 345 347 348 348 349 351 354 355 357 359 359 360 361 362 363 365 367 366 365 366 368 366 365 363 361 357 356 357 361 365 365 366 366 366 365 365 366 366 365 365 365 364 364 365 365 365 364 363 363 362 362 362 362 362 361 359 356 352 350 348 346 344 342 340 338 336 334 332 331 330 328 328 328 329 330 330
345 346 346 346 346 346 344 344 344 345 346 348 348 349 351 352 354 356 357 358 358 359 360 361 363 366 367 367 368 367 365 361 359 358 357 355 353 355 359 362 364 365 366 366 367 367 367 367 366 365 363 363 364 364 362 362 360 359 359 358 357 356 356 355 354 352 349 346 343 340 337 335 334 332 332 331 331 330 329 330 329 329 328 330 329
Wind_Speed
19 27 31 32 33 34 34 33 34 34 34 36 36 37 37 36 34 35 34 34 35 34 33 32 31 31 30 32 32 31 31 30 28 26 24 22 21 21 20 20 20 20 19 18 17 16 15 14 13 13 13 12 11 10 9 8 8 8 8 7 7 5 3 0 2 7 9 8 7 9 11 11 12 10 9 9 8 7 6 6 6 6 6 5 4
15 21 26 30 32 33 34 33 35 34 34 37 38 38 38 37 37 36 35 35 36 37 35 35 34 33 32 33 33 32 31 31 30 28 26 23 22 22 21 20 21 21 21 20 19 18 17 16 14 14 13 13 12 10 9 8 9 9 8 8 8 7 4 2 5 9 9 9 9 7 4 6 9 10 11 10 9 9 8 7 7 6 6 5 5
15 18 21 28 31 33 33 33 35 36 36 37 38 39 38 37 37 36 36 37 38 38 37 36 36 35 33 32 32 30 30 31 30 27 26 24 23 23 23 22 22 22 22 22 21 20 19 18 16 15 14 13 12 11 10 10 10 10 9 9 8 8 6 5 8 8 8 12 11 5 2 2 3 8 11 12 12 11 10 9 8 7 6 5 6
18 19 19 23 28 32 33 33 36 36 36 37 38 38 38 38 38 37 38 38 38 39 38 36 34 33 31 29 29 28 28 29 28 27 26 26 25 25 25 24 23 22 22 22 23 22 21 20 18 16 14 14 13 12 11 10 10 11 10 10 9 10 7 7 11 9 8 12 9 3 1 2 1 6 10 12 13 13 12 11 10 9 8 7 6
20 21 20 20 24 30 34 34 35 36 36 38 39 39 38 39 40 39 39 38 39 39 38 35 31 30 29 26 25 24 24 25 26 26 27 27 27 27 27 26 24 23 21 21 23 23 21 20 19 17 15 14 14 13 12 10 10 11 11 10 10 10 7 7 12 10 9 12 9 4 2 1 2 4 6 7 12 16 15 14 12 11 10 8 7
19 21 22 21 23 28 33 34 35 36 38 39 41 41 40 40 40 40 39 39 39 39 38 36 32 31 30 27 26 25 23 24 28 29 30 30 30 28 27 27 27 25 22 21 21 22 21 21 20 19 17 16 15 13 12 11 11 11 11 11 11 10 8 7 10 10 9 11 10 6 3 2 4 6 4 1 7 14 16 16 15 13 12 11 9
17 19 20 20 22 25 29 34 37 37 39 40 40 41 41 40 40 41 40 39 38 38 38 37 34 33 33 32 32 30 28 29 32 33 32 32 31 29 27 28 28 27 24 23 21 21 21 21 21 20 18 17 16 15 14 13 12 11 10 11 11 11 10 9 10 10 11 11 9 7 3 2 7 9 5 3 2 6 12 16 17 16 15 13 12
17 18 19 19 21 24 29 35 39 39 39 39 39 40 41 40 40 41 40 39 39 38 39 38 37 35 35 35 33 33 33 33 34 33 32 31 31 30 28 28 28 28 27 25 23 21 20 21 22 22 21 19 18 17 15 13 12 12 11 12 13 13 12 11 11 11 12 12 10 10 6 3 7 10 9 8 5 1 5 10 14 17 17 16 15
19 19 20 20 23 29 33 36 38 39 39 40 41 41 41 41 40 41 40 39 39 39 39 40 39 37 36 35 33 33 33 32 31 30 30 30 29 29 28 27 28 28 28 27 24 22 21 21 22 23 23 21 20 18 16 14 13 13 13 14 14 14 13 12 12 12 12 13 12 11 8 4 5 8 10 10 6 3 2 4 10 13 15 19 19
18 19 20 21 27 33 35 34 36 37 38 40 41 40 40 40 40 40 40 39 39 40 41 41 40 38 36 35 33 32 31 29 27 28 29 28 28 27 26 27 27 28 29 28 27 24 22 21 22 24 24 23 22 19 18 16 14 14 13 14 15 16 15 14 13 13 13 14 14 13 10 7 5 6 8 9 6 4 3 4 11 13 13 18 22
17 18 18 21 28 33 33 32 35 36 37 38 39 39 40 40 40 41 42 41 39 40 41 42 41 39 37 36 35 33 31 29 27 27 28 28 28 28 27 27 27 28 29 29 29 26 24 22 21 23 24 24 23 21 19 17 15 14 14 14 16 17 17 16 15 13 13 14 15 15 14 11 9 7 9 12 9 6 4 4 11 16 15 18 20
17 18 17 17 20 25 29 31 33 35 36 37 39 39 40 40 41 41 41 41 41 41 42 42 41 40 39 37 36 34 32 31 30 30 30 30 30 30 28 27 27 28 29 30 30 28 26 23 22 22 24 24 24 22 20 18 16 15 15 15 16 17 18 18 17 16 15 15 17 18 16 15 14 11 11 15 15 13 11 8 11 14 13 16 19
16 16 15 16 17 18 23 27 31 33 35 37 38 38 39 40 41 41 41 42 42 41 42 42 41 41 40 39 37 35 33 32 32 32 32 32 32 31 30 29 29 29 30 32 32 30 27 25 24 23 23 24 24 22 21 19 17 16 16 16 16 18 19 19 19 18 17 17 18 18 17 17 17 14 12 14 16 16 14 11 12 12 10 14 18
16 16 15 16 17 17 21 27 30 31 34 37 38 38 38 38 40 41 41 42 42 42 42 42 42 42 41 40 39 36 34 34 34 34 34 34 33 33 33 32 31 31 32 33 32 31 28 26 25 24 23 23 23 23 21 20 19 18 17 17 17 19 19 20 21 20 19 18 18 18 18 18 18 16 14 14 15 15 14 12 11 9 8 10 12
16 16 17 18 18 19 22 27 30 32 34 36 37 38 38 38 40 42 42 42 42 42 42 42 43 43 42 41 39 38 36 35 35 35 34 34 34 34 35 34 34 33 32 32 32 31 29 27 25 24 23 23 23 23 22 21 20 19 18 18 18 19 20 21 22 21 21 20 19 18 17 17 18 17 16 16 17 17 15 14 12 7 4 5 6
16 16 17 18 18 19 23 27 30 32 35 36 37 38 39 39 41 43 43 44 44 43 42 43 43 42 41 41 40 39 38 36 35 34 34 34 35 35 35 36 36 35 33 31 31 31 30 28 27 25 24 24 24 23 23 22 21 20 20 19 19 20 21 22 22 23 23 21 21 20 19 19 18 18 18 18 18 18 16 15 15 12 7 3 3
17 17 18 18 18 20 24 28 30 32 35 37 39 41 42 41 41 43 43 43 44 44 43 44 43 41 41 41 40 39 39 37 37 36 35 34 34 34 34 35 36 35 34 32 31 31 30 29 28 27 26 25 24 24 24 23 23 22 22 22 21 21 21 22 23 23 23 22 22 22 22 22 21 19 20 20 20 20 18 16 16 16 13 7 2
18 19 19 18 17 18 23 28 31 35 37 39 41 42 42 42 42 43 42 42 44 44 44 44 43 41 41 40 40 40 39 39 38 37 35 34 34 34 34 33 34 35 35 33 32 31 31 30 29 28 27 26 26 25 25 24 24 24 24 24 23 22 22 23 23 23 23 23 23 23 23 24 23 22 22 21 21 21 21 20 18 17 17 13 8
17 17 16 16 15 17 23 28 32 35 37 39 40 40 40 40 41 42 43 43 43 43 42 42 42 41 40 40 40 40 39 39 38 36 35 34 35 35 34 34 34 35 35 34 33 32 31 31 30 30 29 28 27 27 27 26 26 26 26 26 25 24 24 24 24 24 24 24 24 24 25 26 25 24 23 22 22 22 23 22 20 19 20 19 17
16 16 16 17 17 20 26 30 32 35 37 37 38 38 38 39 39 40 41 41 41 41 41 41 40 40 39 38 39 39 39 38 37 36 35 35 36 35 35 36 35 35 35 34 34 33 32 31 32 32 31 30 29 28 28 28 28 28 27 27 27 26 27 26 26 25 25 25 26 26 26 26 26 26 26 24 23 22 23 23 22 21 22 22 22
17 17 18 19 18 20 26 30 32 33 33 33 35 36 37 37 37 38 38 38 39 40 40 40 39 39 39 38 38 38 38 37 36 36 36 36 36 35 36 36 35 35 35 35 35 34 33 32 32 32 32 32 31 30 30 30 30 30 29 28 28 28 29 28 28 27 26 27 27 28 27 27 27 27 27 27 25 24 24 25 23 22 23 23 23
19 18 19 19 17 18 23 27 28 28 29 32 34 35 36 36 37 37 37 37 38 39 40 39 39 39 39 39 38 38 38 37 36 36 36 36 35 35 35 34 34 34 35 35 36 35 35 34 33 33 33 33 33 32 32 31 31 31 30 30 30 30 30 30 30 30 29 29 29 29 29 28 27 28 29 28 28 28 27 27 26 25 25 24 23
20 19 18 17 16 17 21 25 26 28 30 32 34 34 35 37 37 37 37 38 39 39 40 39 38 38 39 39 38 38 38 38 37 36 36 36 36 35 34 33 34 34 34 35 36 36 36 35 35 34 34 34 34 34 33 33 32 32 31 31 31 31 32 32 32 32 32 31 30 31 32 31 29 29 31 31 31 31 31 31 30 28 27 27 25
19 18 17 15 15 16 17 18 22 26 28 31 32 33 35 36 36 36 37 39 39 39 39 38 38 38 38 38 38 38 38 38 37 37 37 37 36 35 34 34 34 34 33 35 35 35 36 36 35 36 36 36 36 35 35 34 34 33 32 33 32 32 33 33 34 34 33 32 32 33 33 33 32 31 32 32 32 33 33 33 33 31 30 30 28
18 17 15 15 15 16 15 15 20 25 28 30 32 33 34 35 36 37 38 39 39 38 38 38 38 38 37 37 38 37 37 37 37 37 37 37 36 35 34 35 35 34 34 34 34 35 35 36 36 37 37 38 37 37 36 36 35 35 34 34 34 34 34 34 35 34 34 34 33 34 35 34 33 33 34 34 34 34 34 34 35 34 33 32 31
17 17 16 16 16 17 17 16 20 25 27 29 31 32 33 34 36 38 37 37 38 38 38 38 37 37 36 36 37 37 37 37 37 37 37 37 36 35 35 35 36 36 36 35 34 35 35 36 38 38 39 39 38 38 37 37 37 36 35 35 35 35 35 35 35 35 35 35 35 36 36 34 34 35 37 37 36 35 35 35 35 36 36 34 33
16 16 16 17 17 18 19 17 20 25 28 30 31 32 33 34 35 37 37 37 38 38 38 38 38 37 37 37 39 39 39 38 38 38 38 37 37 36 37 37 37 37 36 36 35 35 36 37 38 39 39 39 38 38 38 38 37 36 36 36 36 36 36 36 36 36 35 36 36 37 36 36 36 37 38 38 37 36 36 36 36 36 35 34 34
15 15 16 17 18 18 18 17 19 24 28 29 30 32 32 33 34 35 36 36 37 38 38 38 38 37 38 39 40 40 40 39 39 39 38 37 37 37 37 37 37 37 37 37 37 36 36 37 38 39 39 39 38 38 39 38 38 37 36 37 37 37 36 36 36 36 36 36 37 37 38 38 39 39 40 39 37 36 36 36 38 37 34 33 33
15 16 17 18 18 18 17 17 18 22 25 27 28 30 30 31 32 34 35 36 37 37 38 38 37 37 38 39 39 39 39 39 39 38 38 38 37 37 37 37 37 37 38 38 38 37 36 37 38 39 39 39 38 39 40 40 39 38 37 38 37 37 37 37 36 35 35 36 37 38 39 40 40 41 41 40 40 38 37 37 38 37 35 34 33
17 17 18 18 19 19 18 18 17 19 24 25 26 29 31 32 33 34 35 36 36 36 36 36 36 37 38 38 38 38 38 38 38 38 39 38 37 36 36 37 37 38 38 38 38 37 37 37 38 38 39 39 39 40 41 41 41 40 39 38 37 38 37 36 36 35 35 36 37 39 40 41 41 41 41 42 42 41 40 40 40 38 36 35 33
18 18 18 18 18 17 16 17 17 20 24 26 27 30 31 31 32 34 35 36 36 36 35 35 35 36 36 36 36 36 36 36 37 38 38 38 37 37 37 37 37 38 38 38 37 37 38 39 38 38 39 39 40 41 42 43 43 42 41 39 38 38 37 36 36 35 36 36 37 38 39 39 39 40 41 42 43 44 43 43 43 42 40 39 36
17 17 17 17 16 15 16 17 17 21 26 28 28 29 29 31 33 34 34 34 34 34 34 34 34 35 35 35 35 35 35 35 36 37 37 37 37 37 37 37 37 38 38 37 37 38 39 39 38 39 39 40 41 42 42 43 43 43 43 41 39 37 36 36 36 36 37 37 36 37 37 38 39 39 40 41 42 44 45 45 45 45 45 44 42
17 17 17 17 15 16 18 18 19 24 29 31 31 31 32 34 34 33 32 32 32 32 32 33 34 36 35 35 35 35 35 36 36 37 37 37 37 37 37 38 38 37 37 37 38 38 39 39 38 39 40 40 41 42 42 43 43 44 44 43 41 39 36 35 35 36 37 37 37 36 36 37 39 38 39 40 41 43 43 43 44 45 46 47 47
12 13 13 14 13 13 15 18 22 26 29 30 31 31 31 31 30 30 31 31 31 31 32 33 35 36 35 36 36 36 36 37 37 37 37 37 37 38 38 39 38 37 37 38 38 38 39 39 39 40 40 40 41 42 42 42 43 44 43 42 42 40 37 36 36 36 37 37 37 36 36 38 38 37 37 39 40 41 41 40 41 43 46 48 48
9 10 10 10 10 10 11 15 21 24 24 25 27 27 26 26 28 30 31 31 31 32 33 34 35 35 35 36 36 36 36 36 37 37 37 37 37 38 38 39 38 38 39 40 39 39 39 40 40 40 40 40 42 42 41 42 43 43 42 41 41 41 39 39 38 38 38 38 37 37 38 39 39 37 37 38 39 39 39 39 39 40 43 45 47
8 10 10 9 11 12 13 15 19 22 23 23 25 25 25 26 28 29 30 31 31 31 33 33 34 34 35 36 36 36 36 36 37 37 36 37 37 38 39 39 38 39 40 39 39 40 40 41 41 40 39 40 42 41 41 41 42 41 40 40 40 40 40 40 41 40 39 39 39 38 39 40 39 39 39 40 40 39 38 38 38 39 40 42 44
10 11 12 14 17 18 19 20 20 20 22 24 24 25 25 25 26 27 28 29 29 30 32 33 33 34 35 36 37 37 37 37 37 36 36 37 38 39 39 39 38 38 38 38 39 40 40 40 40 39 40 41 41 40 40 40 40 38 38 38 39 40 40 41 42 42 41 40 41 41 41 40 40 40 40 41 40 39 39 39 38 37 38 40 41
11 13 15 18 21 22 22 24 22 17 18 23 26 26 25 23 23 24 25 25 26 28 30 32 33 35 36 37 38 38 38 38 37 37 37 38 38 39 40 40 39 39 39 39 39 38 39 39 40 41 41 41 40 40 39 39 38 37 36 36 38 39 40 41 41 41 41 42 43 43 43 42 42 42 41 41 41 39 40 40 39 37 37 39 37
13 16 17 19 24 25 25 25 23 17 14 20 26 28 26 24 24 24 24 24 25 28 30 32 34 36 38 39 39 39 39 38 38 38 38 39 40 40 40 40 39 39 39 38 37 36 37 38 39 40 40 39 39 39 38 38 38 37 36 36 36 37 39 40 39 39 40 41 43 44 44 44 45 45 44 43 42 41 41 42 40 37 37 37 34
12 16 19 22 25 25 24 22 20 17 17 19 21 22 20 18 20 22 22 23 25 28 30 32 33 35 37 38 38 39 39 38 38 39 39 40 40 40 39 38 37 37 37 35 35 35 35 37 37 37 37 38 38 37 37 37 37 37 37 36 36 37 38 38 37 37 38 39 41 42 42 43 44 45 46 46 45 44 44 44 41 38 38 39 37
12 14 19 23 24 25 23 21 20 21 21 22 23 20 16 13 12 10 8 9 13 19 24 27 29 31 34 36 37 38 39 39 39 40 39 39 39 38 38 37 36 35 34 34 34 34 34 35 35 35 35 36 36 36 37 37 36 36 36 36 37 38 39 37 36 36 37 37 39 40 40 40 41 43 45 45 45 46 46 46 45 43 43 45 41
13 15 18 20 21 22 23 22 23 25 23 22 24 22 17 15 14 10 7 4 2 5 11 19 26 30 32 34 36 36 37 38 39 38 37 36 37 37 37 36 35 33 32 32 32 32 32 32 32 32 33 33 34 34 35 36 36 36 36 36 37 39 39 38 36 35 35 37 38 39 39 39 40 41 42 42 43 44 44 45 47 47 48 49 44
12 13 16 19 18 19 21 22 24 25 23 22 22 20 17 15 13 11 9 7 5 3 2 8 19 28 32 33 35 37 37 37 38 38 37 36 36 35 35 34 33 31 30 30 30 30 29 28 28 29 30 31 32 33 33 34 35 35 35 36 37 38 39 39 38 36 35 37 38 39 38 38 38 38 38 38 38 38 39 41 43 44 45 48 44
10 12 16 19 18 18 20 22 23 24 22 20 20 18 16 15 12 10 9 7 6 5 5 4 10 21 29 33 35 36 37 37 38 38 37 35 33 32 32 32 31 30 28 27 27 28 27 26 25 26 27 29 31 31 32 33 33 33 33 34 36 37 37 39 40 39 37 37 36 35 34 33 33 33 33 33 33 33 34 35 37 37 37 39 39
12 14 17 19 18 18 20 20 21 22 21 19 18 18 16 13 11 10 8 8 7 7 7 7 6 12 23 29 31 33 36 37 37 37 36 34 32 29 28 28 29 28 27 25 25 25 25 24 24 24 24 26 27 28 30 31 31 31 32 32 34 35 35 37 40 40 37 34 32 31 30 29 28 28 28 27 26 26 26 26 27 28 27 26 28
13 14 16 18 18 18 18 18 19 20 21 20 18 17 15 12 10 9 8 8 9 9 9 10 9 8 15 22 26 29 31 33 34 34 34 34 33 30 28 27 27 27 26 25 24 24 24 23 23 22 23 24 24 25 27 28 28 28 29 30 32 33 34 36 39 40 38 35 33 30 27 24 23 22 22 22 22 22 22 22 21 21 21 19 19
12 12 14 16 15 14 14 14 15 18 20 20 18 17 15 12 10 9 7 7 9 9 9 11 11 8 11 17 23 26 27 28 28 29 30 30 30 29 27 26 25 24 23 22 22 22 21 21 21 21 22 23 24 25 25 25 25 25 26 27 29 30 32 34 37 38 38 37 35 31 27 25 24 24 23 22 22 21 20 19 17 15 15 14 13
13 14 14 14 13 12 13 13 13 15 19 19 18 17 15 13 12 10 8 7 8 7 7 9 10 7 8 15 19 21 23 23 22 23 23 22 23 24 24 24 25 24 23 22 22 22 22 22 22 22 22 22 23 24 24 24 24 23 23 24 25 27 29 32 34 34 33 31 29 27 24 22 20 18 15 13 12 11 10 10 10 9 11 12 11
13 13 14 14 13 13 13 13 12 15 19 20 19 18 17 15 13 12 10 9 7 6 5 6 7 5 6 12 15 16 18 20 20 19 17 15 14 17 18 19 21 22 22 22 22 23 24 25 24 23 22 21 21 22 23 23 22 21 20 21 21 22 23 24 25 24 21 17 14 11 8 7 5 4 4 4 5 7 7 8 10 12 14 15 15
12 13 14 14 13 14 15 14 14 17 20 21 19 18 17 17 15 13 12 10 8 6 5 5 5 2 4 9 12 14 18 20 21 21 18 14 10 10 12 14 15 16 17 19 19 21 23 23 22 21 20 20 21 21 21 20 18 17 16 16 15 14 13 12 12 10 9 7 5 4 4 3 3 3 5 6 8 10 12 12 14 16 17 19 19
11 12 12 13 13 15 16 15 16 18 20 20 20 18 17 16 14 13 12 11 9 7 7 6 5 3 3 9 13 16 19 20 20 20 20 18 15 12 9 7 8 9 11 12 14 16 17 18 19 19 17 16 16 16 15 15 14 13 13 12 10 10 10 9 9 8 7 7 6 6 7 6 5 5 7 8 10 12 14 16 18 19 19 20 21
Wind_Direction
190 190 192 192 191 190 191 191 190 191 192 193 193 195 196 196 196 197 198 199 197 198 200 202 204 205 207 209 213 218 221 220 221 220 219 220 220 219 218 218 217 216 217 217 214 215 217 218 219 220 223 223 225 228 225 226 215 208 207 202 207 211 212 279 142 156 151 143 153 169 177 186 193 201 203 203 203 203 208 213 214 217 218 215 213
183 189 191 190 190 189 189 190 189 190 191 192 193 195 196 196 197 198 197 197 198 199 199 201 204 204 204 206 210 215 218 218 218 216 216 219 221 220 219 219 219 219 221 220 217 218 219 220 221 222 225 224 227 230 226 226 216 208 207 203 201 193 200 219 156 150 147 148 150 151 164 193 205 212 212 213 212 208 213 218 221 224 221 214 213
184 188 189 188 188 187 187 189 190 190 191 192 194 194 195 195 197 198 197 198 199 200 200 201 204 205 206 207 209 212 216 216 217 216 216 220 222 221 220 220 219 220 222 223 220 220 222 222 221 222 225 225 224 224 224 225 219 211 208 207 198 184 189 200 182 166 149 148 145 137 156 187 227 237 229 225 221 217 221 223 224 226 225 219 214
188 189 188 186 186 186 187 188 189 191 192 192 193 193 194 195 196 197 198 199 200 201 202 202 203 206 208 209 210 211 213 214 215 218 219 221 223 223 222 221 220 220 221 223 223 222 224 224 222 222 223 225 225 223 224 224 218 210 207 209 200 188 187 189 192 198 176 156 141 97 109 129 256 251 233 232 231 226 226 226 227 228 227 223 216
189 189 190 188 186 187 188 188 188 190 192 193 193 193 194 196 196 197 198 199 200 201 202 201 201 203 205 206 207 209 211 210 211 214 217 220 222 223 222 222 222 220 220 221 223 225 225 224 223 222 221 223 225 225 227 227 220 211 208 209 202 195 194 188 193 212 213 190 173 134 110 160 235 205 198 231 236 229 228 227 227 230 230 227 220
193 191 191 191 188 187 187 188 189 192 194 194 194 195 196 196 197 197 198 200 200 201 201 200 200 199 199 197 197 201 205 207 209 212 215 217 220 222 223 224 224 222 221 220 222 225 226 224 223 222 222 223 226 228 229 229 224 218 213 210 206 202 203 199 200 208 208 199 188 174 173 215 193 159 141 212 234 231 234 232 230 231 231 231 225
198 197 194 191 188 186 188 190 191 193 195 194 195 196 196 197 196 197 199 200 200 200 200 199 199 199 199 198 199 199 202 208 212 214 217 218 220 222 224 224 225 224 223 221 222 224 226 225 224 224 224 224 228 230 230 229 227 224 221 216 211 209 211 213 213 209 198 199 205 205 220 226 182 170 160 154 187 237 239 233 232 231 230 232 230
195 197 196 193 191 189 190 191 193 194 193 193 194 196 197 196 196 197 199 200 201 200 199 199 200 200 200 201 202 203 205 209 212 213 217 219 220 222 224 224 225 225 225 224 222 224 226 227 226 226 226 226 229 231 231 230 229 226 223 221 218 214 216 219 224 223 211 210 218 220 239 253 195 189 183 168 143 199 243 234 232 232 231 231 230
194 195 194 193 193 193 193 192 194 193 191 192 194 195 196 196 196 197 198 200 200 200 199 200 201 202 202 202 203 206 208 210 210 211 214 217 218 221 222 223 224 225 226 225 224 224 226 227 227 226 227 227 228 232 233 232 231 229 225 224 221 218 218 222 229 234 228 222 221 221 230 236 212 212 201 183 160 156 205 228 220 225 235 233 230
197 197 196 194 194 195 193 192 192 193 192 193 194 194 195 195 195 196 198 199 199 199 199 200 201 202 203 203 204 206 208 209 209 210 211 214 217 219 220 221 223 224 224 224 224 223 225 228 228 227 227 228 229 232 234 234 234 233 230 226 224 221 221 223 229 236 238 235 227 220 224 226 213 213 207 196 181 172 187 213 206 206 223 231 229
199 199 198 196 196 195 191 190 191 192 193 193 193 193 193 194 194 195 198 199 199 199 199 200 201 203 204 206 206 207 206 206 206 207 209 212 215 217 219 220 221 223 223 223 223 223 225 228 230 229 228 230 232 234 235 235 236 236 235 232 229 227 225 226 230 235 240 239 233 228 231 235 227 219 213 203 193 187 183 197 209 208 217 229 230
198 198 196 192 193 194 191 190 190 189 190 191 192 193 192 193 193 194 197 198 199 199 200 201 201 203 206 207 208 208 206 205 206 207 208 211 214 216 218 218 219 221 221 222 222 222 224 227 229 229 229 230 232 235 236 236 238 239 239 237 236 234 230 230 232 234 238 237 234 233 240 245 237 236 234 214 204 205 200 195 205 207 218 234 235
197 196 194 191 191 192 191 191 188 188 189 190 192 192 192 193 193 193 196 197 198 199 200 201 202 203 206 207 208 209 208 208 208 209 210 212 214 215 216 217 216 218 218 220 221 221 222 225 229 229 229 230 232 234 236 236 237 239 239 238 237 235 232 231 232 234 237 238 236 236 244 247 236 236 243 225 213 211 205 202 204 202 215 234 236
196 195 193 193 192 191 190 190 189 189 190 189 191 192 192 193 193 193 195 197 198 198 199 200 202 204 206 207 208 208 209 211 211 212 212 213 215 216 218 218 217 218 219 220 221 220 222 226 230 233 233 232 232 234 236 237 237 238 240 239 237 235 233 231 233 235 238 240 239 238 243 243 231 230 240 234 226 219 211 205 199 200 227 237 235
195 195 195 196 193 189 189 190 190 189 189 189 191 192 192 193 193 194 195 196 197 198 199 200 203 205 206 207 207 208 210 212 213 215 215 215 216 217 219 220 220 222 222 222 221 220 223 226 230 234 235 234 233 234 236 237 237 237 240 242 240 237 235 234 235 237 239 240 238 238 242 239 230 231 238 239 236 232 228 221 203 186 227 257 243
194 194 196 198 193 189 189 190 190 189 189 190 191 191 192 193 194 195 196 196 197 198 199 201 203 204 206 206 207 208 210 212 214 216 217 217 218 219 220 221 222 224 224 223 222 222 223 227 230 233 236 235 233 234 237 238 238 238 239 241 242 240 238 237 238 238 240 241 239 239 241 239 237 239 242 241 238 237 238 236 223 206 202 233 274
195 194 195 196 191 190 191 189 189 188 189 191 192 192 193 193 194 195 196 196 197 198 199 201 203 204 205 206 207 208 209 211 213 216 218 219 220 221 221 222 222 224 225 225 224 224 225 228 231 234 236 236 234 233 236 238 240 240 240 240 240 241 241 240 239 239 241 244 243 242 242 242 243 244 245 244 241 241 240 239 238 230 220 208 213
197 196 194 194 192 189 190 190 190 190 191 192 193 194 194 194 194 194 195 195 196 198 199 201 201 203 205 206 207 208 209 211 214 216 217 218 219 221 221 222 223 224 225 226 227 226 226 229 233 235 236 237 235 234 235 237 240 242 242 242 241 241 244 243 241 241 243 245 247 246 245 244 245 246 246 245 244 244 243 242 244 242 235 225 215
197 197 195 193 192 190 189 191 192 191 192 193 193 194 194 196 196 196 196 197 197 197 199 201 201 202 205 206 207 209 210 212 213 215 215 216 218 220 221 222 223 224 224 226 227 227 228 230 233 236 236 236 236 235 235 236 238 241 243 244 244 243 244 245 244 244 245 246 248 249 248 246 246 246 247 248 247 245 244 245 246 245 242 240 235
195 195 194 194 194 193 190 191 191 191 192 191 191 193 194 196 197 197 198 198 197 198 199 201 202 203 205 206 208 209 211 212 213 213 214 216 218 219 220 222 223 223 224 225 227 229 230 231 233 235 235 235 236 236 237 237 237 240 242 244 245 244 245 246 247 247 247 247 248 249 249 249 248 247 246 248 249 247 244 245 249 252 250 251 247
194 192 193 195 195 192 190 191 191 191 190 189 190 192 194 196 197 198 198 197 198 198 199 201 202 203 205 206 207 209 211 212 213 213 214 216 218 219 220 221 221 222 223 224 227 230 231 232 232 233 234 235 237 237 238 237 237 238 241 243 245 245 245 247 247 248 249 248 248 249 250 250 249 249 248 248 248 247 247 247 250 256 257 257 252
194 193 193 193 192 188 188 189 188 187 186 187 189 191 193 195 196 198 198 197 198 199 199 201 201 202 204 205 207 209 211 212 213 214 215 216 217 219 220 220 220 222 223 224 226 229 231 231 231 233 235 236 238 239 238 237 236 236 238 241 242 243 244 245 246 247 248 248 248 248 250 251 251 251 251 250 248 247 248 250 252 255 258 260 258
193 192 191 190 187 184 184 185 185 185 186 187 188 190 192 194 195 196 197 199 200 199 200 201 201 203 205 206 207 208 210 211 212 214 216 217 218 219 219 219 220 222 224 225 227 229 230 230 231 233 235 236 237 239 238 237 236 236 236 238 239 240 241 242 242 245 246 247 246 247 249 250 250 251 252 252 251 250 249 252 253 254 256 259 260
194 190 188 185 181 179 181 184 184 186 187 186 187 190 192 193 194 195 197 199 199 200 200 200 201 203 204 205 206 208 209 210 212 214 216 218 218 219 219 220 221 222 224 226 227 229 229 229 230 232 234 236 236 237 238 237 237 237 237 237 238 238 239 240 241 243 244 244 244 245 247 249 248 249 251 252 252 252 251 251 253 254 254 255 258
191 187 182 177 174 176 181 184 185 187 188 187 188 190 191 192 193 195 197 198 198 199 199 199 201 202 203 204 206 207 208 210 211 214 216 218 219 219 219 221 222 223 224 226 226 227 228 228 230 232 234 235 235 236 236 237 237 238 238 239 238 238 238 240 241 242 243 243 243 244 246 247 246 246 248 250 250 251 251 250 251 252 252 253 254
188 182 177 175 174 179 184 184 185 187 187 188 189 190 191 192 194 195 196 197 197 198 199 199 200 201 202 204 205 207 209 210 212 214 216 218 218 219 220 221 222 223 223 224 225 225 226 228 230 232 234 234 235 235 235 236 236 237 237 238 239 238 239 240 241 241 242 243 243 245 246 245 244 244 246 248 249 249 249 250 250 250 251 251 251
185 179 175 175 176 181 184 183 185 187 187 189 190 190 191 192 194 195 196 195 196 197 198 199 200 200 201 203 205 207 209 210 212 214 216 218 218 219 220 220 221 222 223 223 224 225 226 228 231 232 233 235 235 235 235 236 235 235 236 237 238 238 239 240 241 241 242 243 244 246 247 246 245 245 246 247 247 247 248 250 251 251 250 249 248
180 176 175 176 179 182 183 182 184 186 188 190 191 191 192 192 194 194 195 195 195 196 197 199 200 201 202 204 206 208 209 210 212 214 216 218 218 219 220 221 222 222 223 224 224 225 226 228 230 232 234 235 234 235 236 236 236 235 235 236 237 237 238 239 240 241 242 243 245 246 247 247 247 247 248 249 248 247 247 248 250 251 250 249 248
175 177 177 178 180 181 181 183 183 183 185 188 189 191 192 193 194 195 195 196 195 195 197 198 199 201 204 205 206 207 209 211 211 213 215 217 218 220 221 222 223 223 224 225 225 226 227 228 230 232 234 235 234 235 236 236 236 235 235 236 237 237 238 238 239 241 242 243 244 246 247 248 249 250 251 251 251 250 248 248 251 250 249 248 248
177 180 180 181 182 182 181 180 180 181 183 184 187 189 191 193 194 195 196 196 195 196 197 198 199 203 205 206 207 207 209 210 211 213 214 216 217 219 221 222 223 224 225 225 226 226 227 229 231 232 233 234 235 236 237 237 237 236 236 236 236 237 238 238 239 240 241 242 244 246 248 250 250 251 253 254 254 254 252 252 254 253 250 248 247
179 179 181 183 182 180 178 178 180 182 182 183 186 189 192 194 195 195 196 195 194 195 197 198 200 204 205 206 207 208 208 209 211 213 214 215 216 217 220 222 223 224 225 226 226 226 227 229 231 233 234 234 235 237 238 238 239 238 237 236 236 238 238 238 239 240 241 243 244 246 248 250 251 252 253 255 256 256 255 255 256 255 254 252 248
180 180 181 181 177 174 176 180 183 182 183 186 187 188 191 195 196 196 196 194 194 195 196 198 201 204 205 205 206 207 208 210 212 213 214 215 215 216 219 221 222 224 225 226 226 226 228 230 231 233 235 236 237 238 239 239 240 240 239 237 237 238 238 238 239 241 243 244 245 247 248 249 251 251 252 254 255 256 257 257 257 257 257 256 253
179 178 177 176 174 176 180 182 182 183 186 189 187 187 193 197 197 195 194 193 193 194 195 197 201 204 205 205 205 206 208 210 212 213 214 215 215 216 218 220 222 223 224 226 227 227 229 230 231 233 235 237 239 240 240 241 241 241 241 239 238 238 238 240 240 242 244 245 246 247 248 249 251 251 252 253 254 255 256 257 257 258 257 257 256
171 171 172 173 173 175 178 179 182 186 188 189 189 192 196 196 194 193 193 193 193 193 195 198 202 205 204 205 205 205 207 209 211 212 213 214 214 216 217 219 221 222 223 225 227 228 230 231 232 233 235 237 239 241 241 242 242 243 243 241 240 239 240 242 243 244 245 246 246 247 248 250 251 250 250 252 253 254 255 255 255 255 256 256 256
145 145 149 154 156 159 166 174 181 183 185 186 190 194 194 193 194 194 194 194 192 193 196 200 203 204 204 204 205 206 207 209 211 211 212 213 214 216 217 219 219 221 222 224 226 227 230 231 233 233 235 237 239 240 242 242 243 244 244 243 242 241 241 243 245 246 247 248 248 248 249 251 252 251 251 252 252 253 253 253 254 254 255 256 256
127 131 136 138 139 144 151 160 169 173 177 183 187 188 189 191 194 195 195 194 194 194 198 201 203 204 205 205 205 206 207 209 210 210 211 213 214 216 218 218 219 220 223 224 225 227 229 231 233 233 234 237 239 240 241 242 244 244 243 243 242 241 242 244 246 247 248 249 250 250 250 252 252 253 253 254 254 254 253 252 253 253 255 257 257
105 109 113 116 122 129 136 143 152 163 175 183 184 185 188 191 193 195 195 194 195 197 199 202 203 204 205 206 206 206 208 209 209 209 211 213 215 217 218 218 218 220 221 223 224 226 228 231 232 233 233 236 238 240 240 241 243 243 242 241 241 241 242 243 246 248 249 250 251 251 251 252 253 254 255 256 256 254 252 252 252 253 255 256 258
100 104 103 104 109 115 123 128 130 140 166 181 185 185 187 189 192 194 195 196 197 199 201 203 205 206 207 207 207 207 208 209 209 210 211 213 215 217 219 219 218 219 221 223 224 226 228 230 232 233 233 235 238 239 240 240 241 242 241 240 240 240 241 243 245 247 249 250 251 252 252 252 253 254 256 257 257 255 252 252 252 253 254 255 257
85 97 102 105 106 105 105 107 106 106 131 165 180 186 186 190 195 196 198 201 203 204 205 205 207 208 209 208 208 209 209 210 210 211 213 214 215 218 219 219 219 219 221 223 223 225 228 230 232 234 235 236 238 239 240 240 240 240 240 239 239 238 239 241 243 245 248 249 251 252 253 252 253 255 256 257 257 256 253 253 253 252 253 255 257
71 88 99 101 100 97 93 91 94 97 106 128 152 164 168 179 190 195 200 206 210 211 212 211 210 210 210 210 210 209 210 211 211 213 215 216 216 218 219 219 219 220 222 223 223 224 227 230 232 234 235 236 237 239 240 240 240 239 239 239 237 235 236 239 241 243 246 248 251 252 253 253 254 256 256 257 257 256 255 256 254 251 253 257 259
61 80 91 92 90 90 90 87 88 92 98 107 115 116 113 121 137 152 176 200 210 215 217 218 216 213 212 212 212 211 211 213 214 215 216 217 217 218 218 218 218 219 220 222 223 224 226 230 232 233 234 236 236 237 239 240 240 239 239 238 236 236 238 239 240 242 244 247 250 253 254 255 257 258 259 259 259 258 257 256 255 253 257 261 261
55 71 85 89 88 87 87 83 81 83 89 98 100 94 88 88 84 70 57 71 141 204 218 220 218 216 214 213 213 214 213 214 216 216 216 217 218 218 218 218 218 218 218 220 222 224 225 229 232 233 234 236 237 237 238 239 240 240 239 238 238 239 241 241 240 242 243 246 251 253 256 258 260 261 263 263 264 264 261 260 260 261 263 265 262
48 62 76 84 85 83 80 78 78 78 80 87 90 85 79 74 60 42 38 44 39 18 292 230 219 217 216 214 213 214 214 214 216 217 217 217 218 217 218 218 217 217 217 219 221 223 224 227 230 232 233 235 237 238 238 239 240 240 239 239 240 242 244 242 241 241 244 248 252 255 258 261 262 263 265 265 267 268 267 267 268 270 271 270 268
47 57 69 76 78 77 75 74 74 75 74 76 80 80 73 62 48 37 35 34 22 5 346 302 232 217 216 214 213 213 213 213 215 216 217 218 218 216 215 216 216 216 216 217 220 221 222 225 228 230 231 233 235 238 239 241 243 242 241 241 242 243 244 243 243 244 246 249 252 255 258 260 262 264 266 267 269 270 272 274 275 278 280 279 279
41 50 62 71 74 75 73 69 67 70 71 69 70 72 64 51 41 34 27 18 10 0 345 330 287 228 217 214 212 211 211 212 213 213 215 217 218 216 214 214 214 214 214 216 218 219 220 222 225 227 229 230 232 235 238 241 243 243 244 244 244 245 246 245 244 245 246 248 251 255 257 259 262 265 267 269 272 274 277 280 282 287 292 294 297
32 42 54 64 70 70 68 64 60 63 67 65 64 64 58 47 38 32 22 7 360 356 343 332 317 266 228 216 211 210 209 210 211 211 212 215 216 215 214 213 211 212 213 214 215 217 218 221 223 225 227 228 230 233 236 239 240 241 242 243 244 246 246 245 244 245 246 248 249 252 255 257 260 264 267 271 277 280 285 289 292 298 305 309 317
25 39 53 62 67 66 64 64 61 61 64 65 62 59 55 47 39 32 19 6 0 356 344 333 324 294 242 220 212 209 206 206 207 207 209 213 214 214 214 212 210 210 211 212 214 214 214 215 218 221 223 226 230 231 232 234 235 236 239 240 242 244 245 245 246 247 248 249 250 252 256 259 264 269 273 277 282 286 291 297 301 308 315 320 329
27 39 52 60 63 65 67 66 62 62 64 62 59 56 51 46 41 34 25 17 10 2 348 336 327 302 243 222 214 208 201 196 196 198 200 205 209 211 212 213 213 212 210 210 210 211 212 214 216 217 219 221 226 229 230 231 233 235 238 239 240 243 244 245 247 249 251 254 256 259 262 265 268 273 279 284 292 297 304 314 322 330 337 341 342
27 38 49 57 63 66 67 64 59 60 62 58 54 50 45 42 40 34 29 28 21 11 5 349 334 306 236 216 209 199 189 181 176 176 176 181 193 202 206 210 215 216 215 215 214 214 218 220 218 217 216 216 220 228 231 233 234 235 236 239 239 241 242 244 246 248 249 250 253 254 256 262 270 288 314 336 345 343 345 349 353 354 352 349 347
31 42 49 55 64 68 65 60 55 56 58 55 50 46 41 39 39 35 31 30 25 17 21 17 3 335 220 205 191 179 174 170 166 162 154 143 146 173 191 200 209 214 216 219 221 223 226 227 223 218 217 219 226 233 233 230 228 225 224 225 225 225 225 225 223 221 213 198 176 145 116 83 60 40 18 11 9 6 3 359 355 353 351 348 345
31 42 46 46 55 62 61 57 55 56 57 54 50 46 40 36 39 41 35 31 29 28 31 34 34 38 190 186 172 164 164 162 159 156 148 135 119 110 120 155 189 207 214 220 225 229 231 231 226 220 217 219 227 230 222 209 202 199 196 193 189 186 183 180 180 177 162 143 131 120 102 81 68 58 39 26 19 12 4 358 353 348 347 347 345